[[{"header":{"parameterUnit":"m.s-1","parameterCategory":1,"la1":30.2991,"la2":30.254,"lo1":-89.0895,"lo2":-89.0444,"dy":0.0017,"dx":0.0017,"nx":28,"ny":28,"refTime":"2025-07-03T21:00:00:Z","depth":0,"parameterNumber":2,"parameterNumberName":"U-component_of_WINDS"},"data":[0,0,0,0,0,0,0,0,0,0,0,0,0,0,0,0,0,0,0,0,0,0,0,0,0,0,0,0,0,0,0,0,0,0,0,0,0,0,0,0,0,0,0,0,0,0,0,0,0,0,0,0,0,0,0,0,0,0,-1.8752,-1.8751,0,-1.8639,-1.8637,-1.8636,-1.8532,-1.853,-1.8529,-1.8528,-1.841,-1.8408,-1.8406,0,0,0,0,0,0,0,0,0,0,0,0,0,-1.888,-1.8878,-1.8753,-1.8751,-1.875,-1.8639,-1.8637,-1.8636,-1.8532,-1.853,-1.8529,-1.8527,-1.8411,-1.8408,-1.8406,0,0,0,0,0,0,0,0,0,0,0,0,0,-1.8801,-1.8877,-1.8753,-1.8684,-1.8677,-1.8639,-1.8637,-1.8635,-1.8532,-1.853,-1.8528,-1.8527,-1.8411,-1.8408,-1.8406,-1.8426,0,0,-1.8397,-1.8395,0,0,0,0,0,0,0,0,-1.8806,-1.8796,-1.8696,-1.8689,-1.8681,-1.8597,-1.8639,-1.8565,-1.8533,-1.8587,-1.8528,-1.8526,-1.8474,-1.8466,-1.8448,-1.842,-1.8415,-1.8396,-1.8395,-1.8393,-1.8392,0,0,0,0,0,0,0,-1.8811,-1.8801,-1.8707,-1.8695,-1.8685,-1.866,-1.8646,-1.8624,-1.8542,-1.8582,-1.8574,-1.8563,-1.8469,-1.8451,-1.8445,-1.8413,-1.8396,-1.8394,-1.8392,-1.8391,-1.8396,-1.8398,0,0,0,0,0,0,-1.8827,-1.8806,-1.8711,-1.8704,-1.874,-1.8659,-1.8644,-1.8626,-1.8542,-1.8528,-1.8564,-1.8558,-1.8457,-1.8448,-1.844,-1.8457,-1.8393,-1.8391,-1.8389,-1.8394,-1.8396,-1.8398,0,0,0,0,0,0,-1.883,-1.882,-1.8716,-1.8753,-1.8738,-1.8659,-1.8639,-1.8625,-1.8607,-1.8529,-1.8514,-1.8561,-1.8456,-1.8444,-1.843,-1.8452,-1.8389,-1.8387,-1.8392,-1.8395,-1.8397,-1.8493,0,0,0,0,0,0,-1.8834,-1.8821,-1.8828,-1.8754,-1.8736,-1.8708,-1.8641,-1.8624,-1.8602,-1.8593,-1.8522,-1.8508,-1.8453,-1.8435,-1.8427,-1.8447,-1.8384,-1.8389,-1.8393,-1.8397,-1.8487,-1.8499,-1.8508,0,0,0,0,0,-1.8839,-1.8859,-1.8829,-1.8818,-1.8743,-1.8709,-1.8699,-1.8636,-1.8605,-1.861,-1.8561,-1.851,-1.8452,-1.8435,-1.8425,-1.8444,-1.8388,-1.8392,-1.8396,-1.8483,-1.8496,-1.8508,0,0,0,0,0,0,-1.8937,-1.8848,-1.8813,-1.881,-1.8768,-1.8692,-1.8697,-1.8652,-1.8618,-1.861,-1.8533,-1.8518,-1.8513,-1.8477,-1.846,-1.8459,-1.8413,-1.8415,-1.8482,-1.8494,-1.8505,-1.8512,-1.8382,0,0,0,0,0,-1.8958,-1.8938,-1.8862,-1.8866,-1.8847,-1.8776,-1.8759,-1.8714,-1.8668,-1.8649,-1.8598,-1.8554,-1.8526,-1.8508,-1.8478,-1.8483,-1.8466,-1.8491,-1.8502,-1.8511,-1.8513,-1.8513,-1.8523,-1.8412,-1.8412,-1.8412,0,0,-1.9001,-1.895,-1.8942,-1.8884,-1.8846,-1.8828,-1.8762,-1.8744,-1.8729,-1.8646,-1.8629,-1.8591,-1.8537,-1.8533,-1.8528,-1.8503,-1.8541,-1.8516,-1.8524,-1.8521,-1.8518,-1.8529,-1.8538,-1.8415,-1.8415,-1.8414,0,0,-1.907,-1.903,-1.9029,-1.8993,-1.8937,-1.889,-1.8891,-1.8821,-1.8793,-1.8775,-1.8712,-1.8694,-1.8647,-1.8611,-1.8587,-1.8645,-1.8598,-1.8638,-1.8691,-1.8692,-1.8701,-1.8708,-1.8728,-1.8736,-1.8641,-1.8641,-1.8641,0,-1.913,-1.9099,-1.9034,-1.902,-1.8997,-1.8923,-1.8921,-1.8889,-1.8826,-1.8812,-1.8785,-1.8725,-1.8683,-1.8669,-1.8684,-1.8667,-1.8665,-1.8644,-1.8705,-1.8712,-1.8718,-1.8736,-1.8743,-1.8646,-1.8646,-1.8645,-1.8645,0,-1.9176,-1.9156,-1.9162,-1.9104,-1.9081,-1.9074,-1.9008,-1.8993,-1.8951,-1.8908,-1.8891,-1.8839,-1.8797,-1.8791,-1.875,-1.8772,-1.8758,-1.872,-1.8671,-1.8734,-1.875,-1.8756,-1.8654,-1.8652,-1.865,-1.8649,0,0,-1.9299,-1.9207,-1.921,-1.9183,-1.9118,-1.9101,-1.9091,-1.9051,-1.9039,-1.9,-1.8989,-1.8952,-1.8917,-1.8889,-1.8844,-1.8845,-1.8894,-1.8806,-1.8803,-1.8823,-1.8914,-1.8942,-1.8951,-1.8863,-1.8864,-1.8865,-1.8918,0,-1.9355,-1.9332,-1.9275,-1.927,-1.9251,-1.9181,-1.9173,-1.9132,-1.9092,-1.9069,-1.9025,-1.9,-1.8955,-1.8938,-1.8937,-1.8888,-1.8911,-1.8884,-1.8851,-1.8851,-1.8865,-1.8959,-1.8988,-1.9041,-1.8924,-1.8925,-1.8926,0,-1.9416,-1.9382,-1.9376,-1.9312,-1.9302,-1.9295,-1.9254,-1.9235,-1.9187,-1.9158,-1.9129,-1.9079,-1.9065,-1.9023,-1.9002,-1.8986,-1.8969,-1.8944,-1.8945,-1.8937,-1.8891,-1.8953,-1.9056,-1.9063,-1.8935,-1.8934,-1.8933,0,-1.9505,-1.9458,-1.9448,-1.9427,-1.9353,-1.935,-1.9319,-1.927,-1.925,-1.9215,-1.9201,-1.9165,-1.9145,-1.9118,-1.906,-1.9034,-1.9046,-1.8998,-1.902,-1.9021,-1.9023,-1.9023,-1.9123,-1.9017,-1.9016,-1.9016,-1.9016,0,-1.9573,-1.9571,-1.9487,-1.948,-1.9477,-1.9412,-1.941,-1.9373,-1.933,-1.9315,-1.9254,-1.9242,-1.9167,-1.9146,-1.9101,-1.909,-1.9082,-1.9057,-1.9045,-1.9061,-1.9064,-1.9048,-1.9042,-1.9018,-1.9018,-1.9017,-1.9017,0,-1.967,-1.9614,-1.9598,-1.953,-1.9513,-1.9514,-1.9456,-1.9447,-1.9405,-1.9387,-1.9379,-1.9312,-1.9284,-1.9225,-1.918,-1.915,-1.915,-1.9129,-1.9166,-1.9158,-1.9183,-1.9181,-1.9274,-1.9282,-1.9173,-1.9174,-1.9175,0,-1.9715,-1.9713,-1.9646,-1.9632,-1.9604,-1.9582,-1.9562,-1.9498,-1.948,-1.9427,-1.9425,-1.9393,-1.9363,-1.9322,-1.9269,-1.9236,-1.9212,-1.9247,-1.9206,-1.9224,-1.9211,-1.9211,-1.921,-1.9256,-1.9257,-1.9258,-1.9259,0,-1.9802,-1.9775,-1.9748,-1.9712,-1.969,-1.9659,-1.9624,-1.9617,-1.9545,-1.9527,-1.9499,-1.9476,-1.9432,-1.9401,-1.936,-1.9327,-1.9281,-1.9273,-1.9276,-1.9292,-1.9313,-1.9301,-1.9189,-1.9271,-1.9269,-1.9269,-1.9268,-1.9268,-1.9873,-1.9868,-1.982,-1.9793,-1.9761,-1.973,-1.9719,-1.9676,-1.9651,-1.9611,-1.9575,-1.955,-1.9504,-1.9444,-1.9416,-1.9395,-1.9372,-1.9377,-1.9377,-1.9379,-1.9386,-1.9319,-1.9388,-1.9387,-1.9387,-1.9386,-1.9386,0,-1.9955,-1.9922,-1.9898,-1.9852,-1.9831,-1.9791,-1.9752,-1.9736,-1.9715,-1.9677,-1.965,-1.9618,-1.9588,-1.9534,-1.9499,-1.9493,-1.9471,-1.9486,-1.9484,-1.9478,-1.9409,-1.9409,-1.9504,-1.9504,-1.9504,-1.9504,-1.9504,-1.9504,-1.9995,-1.9984,-1.9952,-1.9925,-1.9891,-1.9866,-1.9847,-1.9819,-1.9788,-1.9755,-1.973,-1.9696,-1.9651,-1.9613,-1.9584,-1.9569,-1.9558,-1.958,-1.9558,-1.9494,-1.9483,-1.9472,-1.9472,-1.9578,-1.9578,-1.9628,-1.9628,-1.9629]},{"header":{"parameterUnit":"m.s-1","parameterCategory":1,"la1":30.2991,"la2":30.254,"lo1":-89.0895,"lo2":-89.0444,"dy":0.0017,"dx":0.0017,"nx":28,"ny":28,"refTime":"2025-07-03T21:00:00:Z","depth":0,"parameterNumber":3,"parameterNumberName":"V-component_of_WINDS"},"data":[0,0,0,0,0,0,0,0,0,0,0,0,0,0,0,0,0,0,0,0,0,0,0,0,0,0,0,0,0,0,0,0,0,0,0,0,0,0,0,0,0,0,0,0,0,0,0,0,0,0,0,0,0,0,0,0,0,0,2.744,2.7441,0,2.7486,2.7487,2.7488,2.7557,2.7559,2.756,2.7561,2.7605,2.7605,2.7605,0,0,0,0,0,0,0,0,0,0,0,0,0,2.741,2.741,2.744,2.7441,2.7442,2.7486,2.7487,2.7488,2.7557,2.7559,2.756,2.7562,2.7605,2.7605,2.7605,0,0,0,0,0,0,0,0,0,0,0,0,0,2.7436,2.741,2.744,2.7482,2.7486,2.7486,2.7487,2.7488,2.7557,2.7559,2.7561,2.7562,2.7605,2.7605,2.7605,2.7567,0,0,2.7605,2.7605,0,0,0,0,0,0,0,0,2.7434,2.7437,2.7475,2.7479,2.7484,2.7518,2.7492,2.7514,2.7556,2.753,2.7561,2.7563,2.7574,2.7577,2.7581,2.7569,2.7571,2.7605,2.7605,2.7605,2.7605,0,0,0,0,0,0,0,2.7432,2.7435,2.7459,2.7476,2.7481,2.7497,2.7503,2.7497,2.7541,2.7532,2.7537,2.7542,2.7577,2.7581,2.7583,2.7572,2.7605,2.7605,2.7605,2.7605,2.753,2.7528,0,0,0,0,0,0,2.7425,2.7433,2.7457,2.746,2.7463,2.7496,2.7503,2.7505,2.7541,2.7548,2.7541,2.7545,2.758,2.7583,2.7584,2.7542,2.7605,2.7605,2.7605,2.7532,2.753,2.7528,0,0,0,0,0,0,2.7424,2.7426,2.7455,2.7448,2.7453,2.7495,2.7497,2.7505,2.7509,2.7547,2.7555,2.7537,2.7582,2.7584,2.7571,2.7544,2.7605,2.7605,2.7535,2.7532,2.7529,2.7457,0,0,0,0,0,0,2.7423,2.7426,2.7412,2.7447,2.7453,2.7441,2.7495,2.7505,2.751,2.7516,2.7546,2.7553,2.7583,2.7571,2.7571,2.7546,2.7605,2.7537,2.7533,2.753,2.7462,2.7452,2.7444,0,0,0,0,0,2.7422,2.739,2.7411,2.7414,2.7438,2.744,2.7443,2.748,2.7507,2.7494,2.7518,2.7552,2.7548,2.7569,2.757,2.7544,2.7539,2.7534,2.753,2.7466,2.7454,2.7444,0,0,0,0,0,0,2.7349,2.7395,2.7419,2.7398,2.7415,2.7452,2.7436,2.7466,2.7474,2.748,2.7525,2.7531,2.7511,2.7527,2.7549,2.7509,2.7549,2.7544,2.7499,2.7488,2.7479,2.7475,2.7605,0,0,0,0,0,2.7331,2.733,2.737,2.7347,2.7354,2.7393,2.7396,2.7423,2.7441,2.7448,2.7472,2.7487,2.749,2.749,2.7495,2.7465,2.7472,2.7448,2.7439,2.7431,2.7426,2.7411,2.74,2.7513,2.7513,2.7513,0,0,2.7292,2.7318,2.7314,2.7333,2.7349,2.7346,2.7399,2.7393,2.7391,2.7447,2.7436,2.7454,2.7474,2.7452,2.7444,2.7464,2.7397,2.7425,2.7419,2.7418,2.7405,2.7394,2.7385,2.751,2.7511,2.7511,0,0,2.7221,2.7241,2.7223,2.7239,2.7263,2.7289,2.7285,2.7318,2.7332,2.7322,2.7364,2.7362,2.7365,2.7378,2.7384,2.7319,2.7349,2.7319,2.727,2.7254,2.7245,2.7238,2.7213,2.7203,2.7314,2.7314,2.7314,0,2.717,2.7168,2.721,2.7202,2.7209,2.7262,2.7244,2.7257,2.728,2.7283,2.7306,2.7312,2.7329,2.7311,2.7295,2.7299,2.7294,2.7315,2.7244,2.7236,2.723,2.7206,2.7197,2.731,2.731,2.7311,2.7311,0,2.7103,2.7101,2.7085,2.7107,2.7112,2.7099,2.7139,2.7139,2.7166,2.719,2.7178,2.7201,2.7211,2.7209,2.7235,2.7194,2.7206,2.7236,2.7276,2.7214,2.7193,2.7184,2.7304,2.7306,2.7307,2.7308,0,0,2.6985,2.7033,2.7026,2.7037,2.7068,2.7066,2.7056,2.7067,2.7065,2.708,2.7071,2.7073,2.7101,2.7109,2.7137,2.7124,2.7068,2.7155,2.7156,2.7137,2.7023,2.6999,2.6988,2.709,2.7088,2.7087,2.7021,0,2.6919,2.6904,2.6942,2.6917,2.6915,2.6966,2.6957,2.6974,2.6996,2.6997,2.7021,2.7021,2.7059,2.7064,2.7053,2.7077,2.7046,2.7083,2.708,2.708,2.7072,2.6977,2.6952,2.6887,2.7013,2.7011,2.701,0,2.6838,2.685,2.6825,2.6858,2.6859,2.685,2.6862,2.6863,2.6884,2.6901,2.6909,2.6943,2.6934,2.6974,2.6961,2.6985,2.6987,2.6998,2.6997,2.6996,2.704,2.6972,2.6868,2.6858,2.6998,2.6999,2.7,0,2.6753,2.6763,2.6749,2.6757,2.6795,2.6787,2.6803,2.6825,2.6829,2.684,2.6843,2.6853,2.6857,2.6863,2.6898,2.6924,2.688,2.6923,2.6892,2.6891,2.6879,2.6879,2.6772,2.6883,2.6883,2.6883,2.6883,0,2.6673,2.6656,2.6711,2.6703,2.6684,2.6729,2.6709,2.6729,2.6749,2.6744,2.6789,2.6783,2.683,2.6829,2.6856,2.684,2.6843,2.6855,2.6862,2.685,2.6848,2.685,2.6855,2.6881,2.6881,2.6882,2.6882,0,2.6574,2.6611,2.6599,2.6637,2.6646,2.663,2.6662,2.6655,2.668,2.6674,2.6675,2.6714,2.6716,2.6751,2.676,2.6778,2.6751,2.6767,2.6744,2.6748,2.6715,2.6717,2.6604,2.659,2.6711,2.671,2.6709,0,2.652,2.6507,2.6544,2.6545,2.6558,2.6559,2.6563,2.6607,2.6609,2.6632,2.6622,2.6627,2.6634,2.6634,2.6662,2.6669,2.6684,2.6644,2.6685,2.6674,2.6682,2.6681,2.668,2.6635,2.6633,2.6632,2.6631,0,2.6419,2.6438,2.6444,2.6456,2.646,2.6471,2.6485,2.6483,2.653,2.6531,2.6534,2.6539,2.6548,2.6552,2.6565,2.6579,2.6612,2.6618,2.6611,2.6598,2.6584,2.659,2.6718,2.662,2.6621,2.6622,2.6623,2.6623,2.634,2.6331,2.6355,2.636,2.6375,2.6387,2.6383,2.6408,2.6412,2.6423,2.6449,2.6447,2.6468,2.6488,2.65,2.6498,2.6518,2.6508,2.6506,2.6502,2.6495,2.6586,2.6501,2.6501,2.6501,2.6502,2.6502,0,2.624,2.6259,2.6263,2.6281,2.6285,2.6318,2.6335,2.6335,2.6333,2.6351,2.6357,2.6359,2.6364,2.6393,2.6401,2.6394,2.6409,2.6394,2.6394,2.6397,2.6477,2.6482,2.6382,2.6382,2.6382,2.6382,2.6382,2.6382,2.6189,2.6175,2.6197,2.6192,2.6211,2.6211,2.6217,2.6228,2.6242,2.6244,2.6248,2.6268,2.629,2.6299,2.6305,2.6313,2.6313,2.6293,2.6306,2.638,2.6391,2.6402,2.6407,2.6293,2.6292,2.6225,2.6225,2.6224]}]]